This demonstration page uses our WeatherBlox Daily Observations layout. Learn more.

Left ArrowRight Arrow

39.08367, -84.50855

Hourly Observations for December 22, 2020

Temp ( °F °C ) Dew Point ( °F °C ) Humidity (%) Winds ( mph kmh ) Pressure ( in mb ) Visibility ( mi km ) Precip ( " mm )
12:53 am 00:53 Cloudy 44 6.7 27 -2.8 51 51 W 15 24 29.91 1013 10 16.0934 0 0
1:53 am 01:53 Cloudy 44 6.7 27 -2.8 51 51 WNW 9 15 29.94 1014 10 16.0934 0 0
2:53 am 02:53 Cloudy 44 6.7 28 -2.2 53 53 NW 12 19 29.98 1015 10 16.0934 0 0
3:53 am 03:53 Cloudy 42 5.6 25 -3.9 51 51 W 13 20 30.03 1017 10 16.0934 0 0
4:53 am 04:53 Cloudy 41 5 27 -2.8 57 57 VRB 7 11 30.07 1018 10 16.0934 0 0
5:53 am 05:53 Cloudy 41 5 27 -2.8 57 57 W 9 15 30.11 1020 10 16.0934 0 0
6:53 am 06:53 Mostly Clear 39 3.9 27 -2.8 62 62 W 6 9 30.14 1021 10 16.0934 0 0
7:53 am 07:53 Clear 37 2.8 27 -2.8 67 67 W 8 13 30.19 1022 10 16.0934 0 0
8:53 am 08:53 Cloudy 37 2.8 28 -2.2 70 70 W 9 15 30.22 1024 10 16.0934 0 0
9:53 am 09:53 Cloudy 38 3.3 27 -2.8 65 65 W 10 17 30.26 1025 10 16.0934 0 0
10:53 am 10:53 Cloudy 39 3.9 28 -2.2 65 65 SW 6 9 30.29 1026 10 16.0934 0 0
11:53 am 11:53 Cloudy 41 5 29 -1.7 62 62 WSW 7 11 30.29 1026 10 16.0934 0 0
12:53 pm 12:53 Mostly Sunny 42 5.6 28 -2.2 58 58 W 8 13 30.28 1026 10 16.0934 0 0
1:53 pm 13:53 Sunny 45 7.2 28 -2.2 52 52 VRB 3 6 30.27 1025 10 16.0934 0 0
2:53 pm 14:53 Sunny 46 7.8 28 -2.2 50 50 SW 6 9 30.26 1025 10 16.0934 0 0
3:53 pm 15:53 Sunny 46 7.8 29 -1.7 51 51 SW 6 9 30.27 1025 10 16.0934 0 0
4:53 pm 16:53 Sunny 41 5 28 -2.2 60 60 S 6 9 30.27 1025 10 16.0934 0 0
5:53 pm 17:53 Clear 37 2.8 28 -2.2 70 70 SSW 3 6 30.27 1025 10 16.0934 0 0
6:53 pm 18:53 Clear 34 1.1 27 -2.8 76 76 NW 3 6 30.27 1025 10 16.0934 0 0
7:53 pm 19:53 Clear 31 -0.6 27 -2.8 85 85 Calm 30.26 1025 10 16.0934 0 0
8:53 pm 20:53 Clear 30 -1.1 26 -3.3 85 85 Calm 30.26 1025 10 16.0934 0 0
9:53 pm 21:53 Clear 29 -1.7 27 -2.8 92 92 Calm 30.26 1025 10 16.0934 0 0
10:53 pm 22:53 Clear 27 -2.8 24 -4.4 89 89 Calm 30.26 1025 10 16.0934 0 0
11:53 pm 23:53 Clear 28 -2.2 26 -3.3 92 92 Calm 30.25 1024 10 16.0934 0 0

Powered by AerisWeather